JST40 WADD-YSSY

Flight info

Callsign JST40
Flight time 5h 19m
Altitude 35000
Route BLI M635 ATMAP A576 LEKAD/N0449F370 A576 APOMA Y52 VELGI Y105 TARAL Y59 RIVET
Aircraft A320/M-SDE3FGHIRWY/LB1

Departure

Time 2026-05-04 13:16
Airport Denpasar I Gusti Ngurah Rai International Airport (WADD)

Arrival

Time 2026-05-04 18:35
Airport Sydney Kingsford Smith International Airport (YSSY)
Time Latitude Longitude Altitude Speed Heading
2026-05-04 12:45 -8.74577 115.17442 22 ft 0 kts 357°
2026-05-04 13:04 -8.74580 115.17443 21 ft 2 kts 357°
2026-05-04 13:05 -8.74598 115.17443 21 ft 3 kts 357°
2026-05-04 13:05 -8.74615 115.17444 25 ft 3 kts 357°
2026-05-04 13:05 -8.74632 115.17446 24 ft 2 kts 320°
2026-05-04 13:05 -8.74640 115.17460 25 ft 2 kts 254°
2026-05-04 13:08 -8.74640 115.17457 24 ft 2 kts 254°
2026-05-04 13:08 -8.74646 115.17425 21 ft 7 kts 263°
2026-05-04 13:09 -8.74649 115.17374 21 ft 8 kts 269°
2026-05-04 13:09 -8.74650 115.17314 21 ft 9 kts 269°
2026-05-04 13:09 -8.74652 115.17244 21 ft 11 kts 268°
2026-05-04 13:09 -8.74655 115.17165 21 ft 12 kts 268°
2026-05-04 13:10 -8.74659 115.17078 20 ft 13 kts 268°
2026-05-04 13:10 -8.74664 115.16983 20 ft 14 kts 267°
2026-05-04 13:10 -8.74669 115.16879 20 ft 15 kts 267°
2026-05-04 13:10 -8.74675 115.16768 20 ft 16 kts 267°
2026-05-04 13:11 -8.74682 115.16649 20 ft 18 kts 266°
2026-05-04 13:11 -8.74689 115.16522 20 ft 19 kts 266°
2026-05-04 13:11 -8.74697 115.16389 20 ft 20 kts 266°
2026-05-04 13:11 -8.74707 115.16249 19 ft 21 kts 272°
2026-05-04 13:12 -8.74699 115.16101 19 ft 22 kts 273°
2026-05-04 13:12 -8.74710 115.15950 19 ft 22 kts 269°
2026-05-04 13:12 -8.74714 115.15790 18 ft 23 kts 268°
2026-05-04 13:12 -8.74722 115.15623 18 ft 24 kts 268°
2026-05-04 13:13 -8.74726 115.15471 20 ft 11 kts 268°
2026-05-04 13:13 -8.74727 115.15452 17 ft 0 kts 268°
2026-05-04 13:13 -8.74728 115.15443 17 ft 2 kts 265°
2026-05-04 13:13 -8.74733 115.15422 17 ft 4 kts 250°
2026-05-04 13:14 -8.74752 115.15396 17 ft 5 kts 223°
2026-05-04 13:14 -8.74791 115.15388 18 ft 7 kts 172°
2026-05-04 13:14 -8.74824 115.15393 17 ft 8 kts 172°
2026-05-04 13:14 -8.74882 115.15407 17 ft 9 kts 156°
2026-05-04 13:15 -8.74897 115.15458 18 ft 9 kts 83°
2026-05-04 13:15 -8.74886 115.15686 18 ft 66 kts 88°
2026-05-04 13:15 -8.74861 115.16352 19 ft 121 kts 88°
2026-05-04 13:15 -8.74822 115.17360 26 ft 164 kts 91°
2026-05-04 13:16 -8.74778 115.18565 386 ft 177 kts 90°
2026-05-04 13:16 -8.74714 115.19846 961 ft 184 kts 89°
2026-05-04 13:16 -8.74675 115.21125 1658 ft 183 kts 91°
2026-05-04 13:16 -8.74677 115.22417 2232 ft 185 kts 92°
2026-05-04 13:17 -8.74646 115.23754 2498 ft 204 kts 88°
2026-05-04 13:17 -8.74571 115.25264 2708 ft 227 kts 88°
2026-05-04 13:17 -8.74482 115.26936 3062 ft 246 kts 88°
2026-05-04 13:17 -8.74391 115.28692 3726 ft 253 kts 88°
2026-05-04 13:18 -8.74302 115.30477 4483 ft 255 kts 88°
2026-05-04 13:18 -8.74219 115.32284 5173 ft 260 kts 88°
2026-05-04 13:18 -8.74149 115.34122 5850 ft 264 kts 92°
2026-05-04 13:18 -8.74537 115.35934 6481 ft 268 kts 115°
2026-05-04 13:19 -8.75650 115.37416 7085 ft 273 kts 137°
2026-05-04 13:19 -8.77100 115.38669 7711 ft 276 kts 138°
2026-05-04 13:19 -8.78581 115.39930 8343 ft 279 kts 138°
2026-05-04 13:19 -8.80077 115.41202 8961 ft 282 kts 138°
2026-05-04 13:20 -8.81587 115.42485 9555 ft 286 kts 138°
2026-05-04 13:20 -8.83116 115.43789 10117 ft 289 kts 138°
2026-05-04 13:20 -8.84700 115.45147 10292 ft 308 kts 138°
2026-05-04 13:20 -8.86384 115.46594 10412 ft 327 kts 138°
2026-05-04 13:21 -8.88138 115.48099 10558 ft 342 kts 139°
2026-05-04 13:21 -8.90122 115.49469 10926 ft 348 kts 150°
2026-05-04 13:21 -8.92374 115.50359 11002 ft 350 kts 165°
2026-05-04 13:21 -8.94787 115.50682 11014 ft 351 kts 178°
2026-05-04 13:22 -8.97237 115.50629 11020 ft 352 kts 179°
2026-05-04 13:22 -8.99701 115.50576 11017 ft 360 kts 179°
2026-05-04 13:22 -9.02238 115.50530 11006 ft 367 kts 180°
2026-05-04 13:22 -9.04796 115.50488 11013 ft 367 kts 178°
2026-05-04 13:23 -9.07353 115.50445 11057 ft 371 kts 179°
2026-05-04 13:23 -9.09894 115.50403 11704 ft 366 kts 179°
2026-05-04 13:23 -9.12417 115.50363 12492 ft 360 kts 179°
2026-05-04 13:23 -9.14917 115.50324 13144 ft 358 kts 179°
2026-05-04 13:24 -9.17416 115.50286 13680 ft 360 kts 180°
2026-05-04 13:24 -9.19933 115.50247 14091 ft 364 kts 179°
2026-05-04 13:24 -9.22415 115.50212 14575 ft 363 kts 179°
2026-05-04 13:25 -9.27456 115.50234 15386 ft 369 kts 179°
2026-05-04 13:25 -9.30041 115.50264 15736 ft 374 kts 179°
2026-05-04 13:25 -9.32650 115.50300 16170 ft 376 kts 179°
2026-05-04 13:25 -9.35272 115.50335 16638 ft 378 kts 179°
2026-05-04 13:26 -9.37916 115.50379 17007 ft 382 kts 179°
2026-05-04 13:26 -9.40588 115.50430 17379 ft 386 kts 179°
2026-05-04 13:26 -9.43284 115.50486 17794 ft 389 kts 179°
2026-05-04 13:26 -9.45997 115.50546 18222 ft 392 kts 179°
2026-05-04 13:27 -9.48734 115.50611 18557 ft 395 kts 179°
2026-05-04 13:27 -9.51453 115.50677 18912 ft 398 kts 179°
2026-05-04 13:27 -9.54229 115.50747 19305 ft 400 kts 179°
2026-05-04 13:27 -9.57021 115.50818 19674 ft 403 kts 179°
2026-05-04 13:28 -9.59835 115.50901 20023 ft 406 kts 179°
2026-05-04 13:28 -9.62666 115.51025 20401 ft 409 kts 174°
2026-05-04 13:28 -9.65426 115.51730 20766 ft 412 kts 157°
2026-05-04 13:28 -9.67883 115.53240 21092 ft 417 kts 140°
2026-05-04 13:29 -9.69861 115.55348 21419 ft 420 kts 131°
2026-05-04 13:29 -9.71786 115.57589 21761 ft 423 kts 131°
2026-05-04 13:29 -9.73718 115.59846 22089 ft 425 kts 131°
2026-05-04 13:29 -9.75665 115.62118 22393 ft 428 kts 131°
2026-05-04 13:30 -9.77620 115.64396 22704 ft 430 kts 131°
2026-05-04 13:30 -9.79600 115.66698 22976 ft 434 kts 131°
2026-05-04 13:30 -9.81586 115.69003 23254 ft 436 kts 131°
2026-05-04 13:30 -9.83588 115.71326 23532 ft 439 kts 131°
2026-05-04 13:31 -9.85601 115.73663 23770 ft 441 kts 131°
2026-05-04 13:31 -9.87593 115.75975 24042 ft 442 kts 131°
2026-05-04 13:31 -9.89607 115.78314 24275 ft 443 kts 131°
2026-05-04 13:31 -9.91637 115.80670 24539 ft 444 kts 132°
2026-05-04 13:32 -9.93675 115.83035 24767 ft 446 kts 132°
2026-05-04 13:32 -9.95720 115.85410 24971 ft 449 kts 132°
2026-05-04 13:32 -9.97774 115.87798 25211 ft 450 kts 132°
2026-05-04 13:32 -9.99833 115.90198 25454 ft 451 kts 131°
2026-05-04 13:33 -10.01866 115.92569 25719 ft 452 kts 131°
2026-05-04 13:33 -10.03933 115.94976 25956 ft 453 kts 131°
2026-05-04 13:33 -10.06009 115.97389 26183 ft 455 kts 131°
2026-05-04 13:33 -10.08092 115.99809 26402 ft 456 kts 132°
2026-05-04 13:34 -10.10181 116.02236 26580 ft 459 kts 132°
2026-05-04 13:34 -10.12284 116.04686 26805 ft 460 kts 131°
2026-05-04 13:34 -10.14383 116.07131 27014 ft 461 kts 132°
2026-05-04 13:34 -10.16504 116.09598 27188 ft 464 kts 132°
2026-05-04 13:35 -10.18623 116.12064 27381 ft 466 kts 132°
2026-05-04 13:35 -10.22843 116.16978 28011 ft 463 kts 132°
2026-05-04 13:35 -10.24957 116.19443 28341 ft 463 kts 133°
2026-05-04 13:36 -10.27076 116.21910 28575 ft 464 kts 133°
2026-05-04 13:36 -10.29196 116.24378 28900 ft 463 kts 133°
2026-05-04 13:36 -10.31309 116.26844 29229 ft 462 kts 133°
2026-05-04 13:36 -10.33415 116.29308 29603 ft 461 kts 132°
2026-05-04 13:37 -10.35512 116.31765 29977 ft 460 kts 133°
2026-05-04 13:37 -10.37608 116.34214 30226 ft 461 kts 133°
2026-05-04 13:37 -10.39719 116.36674 30474 ft 461 kts 133°
2026-05-04 13:37 -10.41111 116.38296 30679 ft 460 kts 132°
2026-05-04 13:38 -10.43883 116.41534 31093 ft 458 kts 132°
2026-05-04 13:38 -10.45972 116.43977 31404 ft 457 kts 133°
2026-05-04 13:38 -10.48065 116.46420 31634 ft 459 kts 133°
2026-05-04 13:38 -10.50162 116.48865 31885 ft 459 kts 133°
2026-05-04 13:39 -10.52259 116.51311 32198 ft 458 kts 132°
2026-05-04 13:39 -10.54346 116.53751 32540 ft 457 kts 133°
2026-05-04 13:39 -10.56426 116.56188 32822 ft 457 kts 133°
2026-05-04 13:39 -10.58480 116.58593 32950 ft 457 kts 133°
2026-05-04 13:40 -10.60577 116.61049 32972 ft 463 kts 133°
2026-05-04 13:40 -10.64850 116.66043 32970 ft 471 kts 133°
2026-05-04 13:41 -10.69165 116.71086 33061 ft 476 kts 133°
2026-05-04 13:41 -10.71337 116.73627 33281 ft 476 kts 133°
2026-05-04 13:41 -10.73503 116.76168 33535 ft 476 kts 133°
2026-05-04 13:42 -10.77804 116.81217 34052 ft 475 kts 133°
2026-05-04 13:42 -10.79959 116.83751 34325 ft 473 kts 133°
2026-05-04 13:42 -10.82108 116.86280 34556 ft 472 kts 133°
2026-05-04 13:42 -10.84258 116.88801 34797 ft 471 kts 133°
2026-05-04 13:43 -10.86409 116.91320 34933 ft 472 kts 133°
2026-05-04 13:43 -10.88554 116.93837 34968 ft 472 kts 133°
2026-05-04 13:43 -10.92820 116.98849 34969 ft 471 kts 133°
2026-05-04 13:44 -10.97111 117.03892 34969 ft 471 kts 133°
2026-05-04 13:44 -11.01401 117.08930 34969 ft 471 kts 133°
2026-05-04 13:45 -11.05695 117.13965 34970 ft 471 kts 133°
2026-05-04 13:45 -11.09977 117.18998 34975 ft 471 kts 133°
2026-05-04 13:46 -11.14233 117.24017 34974 ft 471 kts 133°
2026-05-04 13:46 -11.18517 117.29078 34977 ft 472 kts 133°
2026-05-04 13:47 -11.22807 117.34134 34978 ft 472 kts 133°
2026-05-04 13:47 -11.27101 117.39181 34981 ft 472 kts 133°
2026-05-04 13:48 -11.31365 117.44208 34986 ft 472 kts 133°
2026-05-04 13:48 -11.35649 117.49273 34986 ft 471 kts 133°
2026-05-04 13:49 -11.39936 117.54332 34986 ft 471 kts 133°
2026-05-04 13:49 -11.44231 117.59390 34983 ft 472 kts 133°
2026-05-04 13:50 -11.48516 117.64455 34984 ft 472 kts 133°
2026-05-04 13:50 -11.52780 117.69501 34985 ft 473 kts 133°
2026-05-04 13:51 -11.57077 117.74578 34986 ft 473 kts 133°
2026-05-04 13:51 -11.61368 117.79652 34989 ft 473 kts 133°
2026-05-04 13:52 -11.67777 117.87244 34991 ft 473 kts 133°
2026-05-04 13:53 -11.72071 117.92335 34989 ft 473 kts 133°
2026-05-04 13:53 -11.76363 117.97425 34989 ft 474 kts 133°
2026-05-04 13:54 -11.82781 118.05039 34989 ft 474 kts 133°
2026-05-04 13:55 -11.89225 118.12687 34993 ft 473 kts 133°
2026-05-04 13:55 -11.94937 118.19466 34999 ft 473 kts 133°
2026-05-04 13:56 -11.99937 118.25382 34991 ft 472 kts 137°
2026-05-04 13:57 -12.06231 118.31510 34980 ft 470 kts 140°
2026-05-04 13:58 -12.15699 118.40683 34982 ft 470 kts 140°
2026-05-04 13:58 -12.22815 118.47576 34982 ft 470 kts 139°
2026-05-04 13:59 -12.27528 118.52153 34976 ft 471 kts 140°
2026-05-04 14:00 -12.34657 118.59061 34983 ft 471 kts 140°
2026-05-04 14:00 -12.41798 118.65991 34988 ft 472 kts 140°
2026-05-04 14:01 -12.46568 118.70609 34995 ft 472 kts 140°
2026-05-04 14:02 -12.53678 118.77521 34997 ft 472 kts 140°
2026-05-04 14:02 -12.58435 118.82148 34981 ft 472 kts 140°
2026-05-04 14:03 -12.63202 118.86784 34984 ft 473 kts 140°
2026-05-04 14:03 -12.67965 118.91431 34994 ft 473 kts 140°
2026-05-04 14:04 -12.75086 118.98375 35001 ft 473 kts 140°
2026-05-04 14:04 -12.79852 119.03022 35000 ft 473 kts 140°
2026-05-04 14:05 -12.86990 119.09981 35000 ft 472 kts 140°
2026-05-04 14:06 -12.91747 119.14628 34996 ft 472 kts 140°
2026-05-04 14:06 -12.96466 119.19252 34995 ft 472 kts 140°
2026-05-04 14:07 -13.01228 119.23900 34997 ft 473 kts 140°
2026-05-04 14:07 -13.05991 119.28547 34997 ft 472 kts 140°
2026-05-04 14:08 -13.10742 119.33194 35005 ft 472 kts 140°
2026-05-04 14:08 -13.15465 119.37817 34996 ft 472 kts 140°
2026-05-04 14:09 -13.22599 119.44802 34995 ft 473 kts 140°
2026-05-04 14:10 -13.29485 119.51572 34980 ft 470 kts 140°
2026-05-04 14:10 -13.34191 119.56189 34977 ft 471 kts 140°
2026-05-04 14:11 -13.38921 119.60826 34982 ft 471 kts 140°
2026-05-04 14:11 -13.46040 119.67816 34980 ft 472 kts 140°
2026-05-04 14:12 -13.50787 119.72484 34985 ft 472 kts 140°
2026-05-04 14:13 -13.57882 119.79466 34994 ft 473 kts 140°
2026-05-04 14:13 -13.62633 119.84148 34994 ft 473 kts 140°
2026-05-04 14:14 -13.67382 119.88823 35000 ft 473 kts 141°
2026-05-04 14:14 -13.74521 119.95857 34996 ft 474 kts 141°
2026-05-04 14:15 -13.84002 120.05227 34993 ft 474 kts 140°
2026-05-04 14:16 -13.91141 120.12273 34995 ft 474 kts 141°
2026-05-04 14:17 -13.98249 120.19294 34997 ft 474 kts 141°
2026-05-04 14:18 -14.05390 120.26373 34992 ft 475 kts 141°
2026-05-04 14:19 -14.14928 120.35813 34993 ft 476 kts 141°
2026-05-04 14:19 -14.19667 120.40516 34995 ft 476 kts 141°
2026-05-04 14:20 -14.24433 120.45253 34999 ft 476 kts 141°
2026-05-04 14:20 -14.29204 120.49988 34997 ft 476 kts 141°
2026-05-04 14:21 -14.36358 120.57085 34994 ft 476 kts 141°
2026-05-04 14:21 -14.41127 120.61825 34993 ft 476 kts 141°
2026-05-04 14:22 -14.45859 120.66539 34996 ft 476 kts 141°
2026-05-04 14:22 -14.50621 120.71290 34996 ft 476 kts 141°
2026-05-04 14:23 -14.57775 120.78422 34982 ft 477 kts 141°
2026-05-04 14:24 -14.62527 120.83152 34982 ft 478 kts 141°
2026-05-04 14:24 -14.67302 120.87919 34986 ft 478 kts 141°
2026-05-04 14:25 -14.72086 120.92696 34989 ft 478 kts 141°
2026-05-04 14:25 -14.79266 120.99865 34997 ft 478 kts 142°
2026-05-04 14:26 -14.84015 121.04619 34996 ft 478 kts 141°
2026-05-04 14:26 -14.88790 121.09411 34995 ft 478 kts 141°
2026-05-04 14:27 -14.93567 121.14188 34996 ft 478 kts 142°
2026-05-04 14:27 -14.98351 121.18972 34995 ft 478 kts 142°
2026-05-04 14:28 -15.03096 121.23732 35001 ft 479 kts 142°
2026-05-04 14:28 -15.07870 121.28539 34999 ft 479 kts 142°
2026-05-04 14:29 -15.17432 121.38135 34996 ft 479 kts 142°
2026-05-04 14:30 -15.22184 121.42910 34999 ft 479 kts 142°
2026-05-04 14:31 -15.29356 121.50129 35012 ft 479 kts 142°
2026-05-04 14:32 -15.38912 121.59761 34998 ft 479 kts 142°
2026-05-04 14:32 -15.43660 121.64548 34998 ft 479 kts 142°
2026-05-04 14:33 -15.48441 121.69367 34998 ft 479 kts 142°
2026-05-04 14:33 -15.53223 121.74181 34998 ft 480 kts 142°
2026-05-04 14:34 -15.58000 121.79019 34999 ft 480 kts 142°
2026-05-04 14:34 -15.62746 121.83816 35000 ft 480 kts 142°
2026-05-04 14:35 -15.67525 121.88657 35000 ft 479 kts 142°
2026-05-04 14:35 -15.72284 121.93490 34999 ft 479 kts 142°
2026-05-04 14:36 -15.77051 121.98317 34997 ft 478 kts 142°
2026-05-04 14:36 -15.81788 122.03111 35002 ft 479 kts 142°
2026-05-04 14:37 -15.86558 122.07943 35003 ft 479 kts 142°
2026-05-04 14:37 -15.91326 122.12784 34999 ft 479 kts 142°
2026-05-04 14:38 -15.96084 122.17626 34993 ft 479 kts 142°
2026-05-04 14:38 -16.00816 122.22439 34991 ft 479 kts 142°
2026-05-04 14:39 -16.05576 122.27293 35004 ft 479 kts 142°
2026-05-04 14:39 -16.10340 122.32149 34998 ft 479 kts 142°
2026-05-04 14:40 -16.17468 122.39389 34996 ft 480 kts 142°
2026-05-04 14:40 -16.22229 122.44252 34996 ft 479 kts 142°
2026-05-04 14:41 -16.26985 122.49110 34996 ft 480 kts 142°
2026-05-04 14:42 -16.36476 122.58815 35001 ft 480 kts 142°
2026-05-04 14:42 -16.41240 122.63684 35000 ft 480 kts 142°
2026-05-04 14:43 -16.46000 122.68564 34999 ft 480 kts 142°
2026-05-04 14:43 -16.50753 122.73446 34999 ft 480 kts 142°
2026-05-04 14:44 -16.55485 122.78290 35021 ft 480 kts 143°
2026-05-04 14:44 -16.60254 122.83166 35007 ft 480 kts 143°
2026-05-04 14:45 -16.65015 122.88057 35001 ft 481 kts 142°
2026-05-04 14:45 -16.69775 122.92954 35008 ft 480 kts 142°
2026-05-04 14:46 -16.74505 122.97812 35004 ft 480 kts 142°
2026-05-04 14:46 -16.79256 123.02701 35008 ft 480 kts 142°
2026-05-04 14:47 -16.84011 123.07599 35018 ft 480 kts 143°
2026-05-04 14:47 -16.88763 123.12501 35012 ft 480 kts 143°
2026-05-04 14:48 -16.93485 123.17372 35016 ft 480 kts 143°
2026-05-04 14:48 -16.98240 123.22272 35014 ft 480 kts 143°
2026-05-04 14:49 -17.02985 123.27184 35013 ft 480 kts 143°
2026-05-04 14:49 -17.07728 123.32086 35024 ft 480 kts 143°
2026-05-04 14:50 -17.12434 123.36950 34997 ft 480 kts 143°
2026-05-04 14:50 -17.17144 123.41831 34996 ft 480 kts 143°
2026-05-04 14:51 -17.21882 123.46741 35005 ft 480 kts 143°
2026-05-04 14:51 -17.26623 123.51657 35000 ft 480 kts 143°
2026-05-04 14:52 -17.31369 123.56575 35019 ft 480 kts 143°
2026-05-04 14:52 -17.36082 123.61472 35010 ft 481 kts 143°
2026-05-04 14:53 -17.40830 123.66407 35014 ft 481 kts 143°
2026-05-04 14:53 -17.45580 123.71344 35010 ft 481 kts 143°
2026-05-04 14:54 -17.50326 123.76280 35011 ft 481 kts 143°
2026-05-04 14:54 -17.55043 123.81197 35027 ft 482 kts 143°
2026-05-04 14:55 -17.59650 123.86342 35008 ft 492 kts 134°
2026-05-04 14:55 -17.63612 123.92224 35003 ft 495 kts 133°
2026-05-04 14:56 -17.67573 123.98127 35003 ft 495 kts 133°
2026-05-04 14:56 -17.71536 124.04035 35005 ft 495 kts 133°
2026-05-04 14:57 -17.75476 124.09908 35038 ft 496 kts 133°
2026-05-04 14:57 -17.79441 124.15824 35024 ft 496 kts 133°
2026-05-04 14:58 -17.83419 124.21755 35016 ft 497 kts 133°
2026-05-04 14:58 -17.87395 124.27697 35021 ft 497 kts 133°
2026-05-04 14:59 -17.91344 124.33606 35020 ft 498 kts 133°
2026-05-04 15:00 -17.97301 124.42543 35019 ft 498 kts 133°
2026-05-04 15:00 -18.01276 124.48502 35018 ft 498 kts 133°
2026-05-04 15:01 -18.07209 124.57405 35025 ft 498 kts 133°
2026-05-04 15:01 -18.11175 124.63363 35026 ft 498 kts 133°
2026-05-04 15:02 -18.15144 124.69329 35026 ft 498 kts 133°
2026-05-04 15:02 -18.19105 124.75303 35043 ft 498 kts 133°
2026-05-04 15:03 -18.23066 124.81287 35032 ft 498 kts 133°
2026-05-04 15:03 -18.27011 124.87220 35028 ft 499 kts 133°
2026-05-04 15:04 -18.30986 124.93209 35028 ft 499 kts 133°
2026-05-04 15:04 -18.34956 124.99207 35026 ft 499 kts 133°
2026-05-04 15:05 -18.38924 125.05209 35029 ft 499 kts 133°
2026-05-04 15:05 -18.42857 125.11185 35036 ft 500 kts 133°
2026-05-04 15:06 -18.46821 125.17199 35029 ft 500 kts 134°
2026-05-04 15:07 -18.52792 125.26234 35022 ft 501 kts 134°
2026-05-04 15:07 -18.56766 125.32273 35024 ft 501 kts 133°
2026-05-04 15:08 -18.60706 125.38284 35029 ft 502 kts 133°
2026-05-04 15:08 -18.64678 125.44326 35048 ft 502 kts 134°
2026-05-04 15:09 -18.68661 125.50385 35031 ft 503 kts 134°
2026-05-04 15:09 -18.72643 125.56460 35034 ft 504 kts 134°
2026-05-04 15:10 -18.78586 125.65554 35030 ft 504 kts 134°
2026-05-04 15:11 -18.84569 125.74688 35052 ft 504 kts 134°
2026-05-04 15:11 -18.88556 125.80776 35047 ft 505 kts 134°
2026-05-04 15:12 -18.92542 125.86880 35043 ft 505 kts 134°
2026-05-04 15:12 -18.96494 125.92955 35048 ft 505 kts 134°
2026-05-04 15:13 -19.00474 125.99071 35048 ft 505 kts 134°
2026-05-04 15:13 -19.04458 126.05187 35081 ft 505 kts 134°
2026-05-04 15:14 -19.08435 126.11299 35068 ft 505 kts 134°
2026-05-04 15:14 -19.12386 126.17380 35065 ft 505 kts 134°
2026-05-04 15:15 -19.16360 126.23507 35061 ft 505 kts 134°
2026-05-04 15:15 -19.20329 126.29637 35060 ft 505 kts 134°
2026-05-04 15:16 -19.26263 126.38789 35085 ft 505 kts 134°
2026-05-04 15:17 -19.32206 126.47989 35063 ft 505 kts 134°
2026-05-04 15:17 -19.38145 126.57203 35072 ft 505 kts 134°
2026-05-04 15:18 -19.42109 126.63343 35066 ft 505 kts 134°
2026-05-04 15:19 -19.48019 126.72528 35093 ft 505 kts 134°
2026-05-04 15:19 -19.53940 126.81761 35075 ft 505 kts 134°
2026-05-04 15:20 -19.57887 126.87926 35073 ft 505 kts 134°
2026-05-04 15:20 -19.61807 126.94053 35071 ft 505 kts 134°
2026-05-04 15:21 -19.65742 127.00224 35098 ft 506 kts 134°
2026-05-04 15:22 -19.71660 127.09494 35088 ft 505 kts 134°
2026-05-04 15:22 -19.77552 127.18716 35081 ft 506 kts 134°
2026-05-04 15:23 -19.81495 127.24904 35064 ft 506 kts 133°
2026-05-04 15:23 -19.85433 127.31099 35099 ft 506 kts 134°
2026-05-04 15:24 -19.93302 127.43502 35079 ft 506 kts 134°
2026-05-04 15:25 -19.97214 127.49667 35061 ft 506 kts 133°
2026-05-04 15:26 -20.03118 127.58984 35076 ft 507 kts 133°
2026-05-04 15:26 -20.09025 127.68313 35075 ft 507 kts 133°
2026-05-04 15:27 -20.14890 127.77621 35062 ft 507 kts 133°
2026-05-04 15:28 -20.20788 127.86960 35071 ft 507 kts 133°
2026-05-04 15:29 -20.26682 127.96324 35076 ft 507 kts 133°
2026-05-04 15:30 -20.40255 128.17966 35074 ft 508 kts 133°
2026-05-04 15:31 -20.46110 128.27321 35094 ft 508 kts 133°
2026-05-04 15:32 -20.55917 128.43024 35080 ft 509 kts 133°
2026-05-04 15:34 -20.65686 128.58713 35099 ft 509 kts 132°
2026-05-04 15:34 -20.71560 128.68169 35093 ft 509 kts 132°
2026-05-04 15:35 -20.77438 128.77623 35086 ft 510 kts 132°
2026-05-04 15:36 -20.83278 128.87061 35099 ft 510 kts 132°
2026-05-04 15:36 -20.87191 128.93378 35095 ft 509 kts 132°
2026-05-04 15:37 -20.91099 128.99704 35092 ft 510 kts 131°
2026-05-04 15:37 -20.94998 129.06029 35086 ft 510 kts 131°
2026-05-04 15:38 -20.98875 129.12319 35107 ft 509 kts 131°
2026-05-04 15:38 -21.02771 129.18652 35098 ft 509 kts 131°
2026-05-04 15:39 -21.06669 129.24978 35090 ft 509 kts 131°
2026-05-04 15:40 -21.12506 129.34478 35088 ft 509 kts 131°
2026-05-04 15:40 -21.16363 129.40765 35108 ft 509 kts 130°
2026-05-04 15:41 -21.20239 129.47103 35101 ft 508 kts 130°
2026-05-04 15:41 -21.24113 129.53439 35096 ft 508 kts 130°
2026-05-04 15:42 -21.27882 129.59609 35093 ft 507 kts 130°
2026-05-04 15:42 -21.31683 129.65825 35116 ft 507 kts 130°
2026-05-04 15:43 -21.35553 129.72146 35086 ft 507 kts 130°
2026-05-04 15:43 -21.39409 129.78476 35092 ft 507 kts 130°
2026-05-04 15:44 -21.43264 129.84817 35090 ft 508 kts 129°
2026-05-04 15:44 -21.47097 129.91132 35096 ft 508 kts 129°
2026-05-04 15:45 -21.50957 129.97487 35119 ft 508 kts 129°
2026-05-04 15:45 -21.54817 130.03845 35119 ft 508 kts 129°
2026-05-04 15:46 -21.58650 130.10164 35110 ft 508 kts 129°
2026-05-04 15:46 -21.62503 130.16532 35114 ft 508 kts 129°
2026-05-04 15:47 -21.66354 130.22912 35141 ft 509 kts 128°
2026-05-04 15:47 -21.70200 130.29296 35128 ft 509 kts 128°
2026-05-04 15:48 -21.74046 130.35683 35128 ft 509 kts 128°
2026-05-04 15:48 -21.79796 130.45211 35131 ft 509 kts 128°
2026-05-04 15:49 -21.83644 130.51605 35134 ft 509 kts 128°
2026-05-04 15:49 -21.87484 130.58013 35134 ft 509 kts 128°
2026-05-04 15:50 -21.91330 130.64422 35131 ft 510 kts 128°
2026-05-04 15:50 -21.95145 130.70797 35134 ft 510 kts 128°
2026-05-04 15:51 -21.98984 130.77219 35155 ft 510 kts 128°
2026-05-04 15:51 -22.02823 130.83635 35159 ft 509 kts 127°
2026-05-04 15:52 -22.06629 130.90010 35164 ft 509 kts 127°
2026-05-04 15:52 -22.10447 130.96422 35157 ft 509 kts 127°
2026-05-04 15:53 -22.14274 131.02846 35157 ft 509 kts 127°
2026-05-04 15:53 -22.18090 131.09259 35177 ft 508 kts 127°
2026-05-04 15:54 -22.21876 131.15636 35173 ft 507 kts 127°
2026-05-04 15:54 -22.25684 131.22049 35177 ft 507 kts 127°
2026-05-04 15:55 -22.29486 131.28454 35176 ft 507 kts 127°
2026-05-04 15:55 -22.33282 131.34871 35195 ft 507 kts 127°
2026-05-04 15:56 -22.37069 131.41286 35189 ft 506 kts 126°
2026-05-04 15:56 -22.40830 131.47657 35189 ft 506 kts 126°
2026-05-04 15:57 -22.44604 131.54076 35189 ft 506 kts 126°
2026-05-04 15:57 -22.48382 131.60494 35211 ft 506 kts 126°
2026-05-04 15:58 -22.52167 131.66906 35206 ft 505 kts 126°
2026-05-04 15:58 -22.55908 131.73272 35201 ft 505 kts 126°
2026-05-04 15:59 -22.59668 131.79693 35207 ft 505 kts 126°
2026-05-04 15:59 -22.63433 131.86116 35202 ft 505 kts 126°
2026-05-04 16:00 -22.67194 131.92543 35217 ft 505 kts 126°
2026-05-04 16:00 -22.70951 131.98965 35222 ft 504 kts 126°
2026-05-04 16:01 -22.74677 132.05343 35207 ft 505 kts 126°
2026-05-04 16:01 -22.78433 132.11781 35207 ft 506 kts 126°
2026-05-04 16:02 -22.82187 132.18223 35220 ft 505 kts 126°
2026-05-04 16:03 -22.87785 132.27849 35208 ft 506 kts 126°
2026-05-04 16:03 -22.91536 132.34307 35210 ft 506 kts 126°
2026-05-04 16:04 -22.95279 132.40768 35236 ft 506 kts 126°
2026-05-04 16:04 -23.00876 132.50434 35230 ft 506 kts 126°
2026-05-04 16:05 -23.04620 132.56908 35225 ft 507 kts 126°
2026-05-04 16:06 -23.10242 132.66643 35229 ft 508 kts 126°
2026-05-04 16:07 -23.17702 132.79612 35231 ft 507 kts 126°
2026-05-04 16:08 -23.25176 132.92614 35249 ft 507 kts 126°
2026-05-04 16:09 -23.34449 133.08791 35232 ft 505 kts 126°
2026-05-04 16:10 -23.41862 133.21785 35234 ft 506 kts 126°
2026-05-04 16:11 -23.49260 133.34770 35229 ft 507 kts 125°
2026-05-04 16:12 -23.60412 133.54393 35246 ft 507 kts 125°
2026-05-04 16:13 -23.67796 133.67446 35226 ft 508 kts 125°
2026-05-04 16:14 -23.75215 133.80585 35235 ft 508 kts 125°
2026-05-04 16:16 -23.85493 133.95953 35215 ft 503 kts 134°
2026-05-04 16:17 -23.96659 134.10681 35244 ft 504 kts 133°
2026-05-04 16:18 -24.05583 134.22444 35265 ft 504 kts 134°
2026-05-04 16:19 -24.16732 134.37184 35262 ft 504 kts 133°
2026-05-04 16:20 -24.27845 134.51943 35254 ft 504 kts 133°
2026-05-04 16:22 -24.38798 134.66525 35240 ft 504 kts 133°
2026-05-04 16:23 -24.52162 134.84369 35255 ft 504 kts 133°
2026-05-04 16:25 -24.65455 135.02206 35263 ft 504 kts 132°
2026-05-04 16:26 -24.81006 135.23100 35255 ft 506 kts 132°
2026-05-04 16:28 -24.92085 135.38102 35261 ft 506 kts 132°
2026-05-04 16:29 -25.07641 135.59172 35262 ft 506 kts 132°
2026-05-04 16:31 -25.18695 135.74242 35253 ft 507 kts 132°
2026-05-04 16:32 -25.31974 135.92378 35238 ft 508 kts 131°
2026-05-04 16:33 -25.40849 136.04544 35244 ft 509 kts 131°
2026-05-04 16:34 -25.47503 136.13689 35238 ft 509 kts 131°
2026-05-04 16:35 -25.60799 136.31995 35230 ft 510 kts 131°
2026-05-04 16:36 -25.67466 136.41202 35230 ft 511 kts 131°
2026-05-04 16:37 -25.74092 136.50403 35228 ft 511 kts 131°
2026-05-04 16:38 -25.82237 136.61691 35218 ft 512 kts 131°
2026-05-04 16:39 -25.94059 136.78145 35237 ft 512 kts 130°
2026-05-04 16:40 -26.02174 136.89487 35223 ft 512 kts 130°
2026-05-04 16:41 -26.13206 137.04953 35213 ft 512 kts 130°
2026-05-04 16:43 -26.24992 137.21509 35211 ft 513 kts 130°
2026-05-04 16:43 -26.30875 137.29783 35214 ft 513 kts 130°
2026-05-04 16:45 -26.44092 137.48476 35226 ft 512 kts 130°
2026-05-04 16:46 -26.55074 137.64076 35224 ft 513 kts 130°
2026-05-04 16:47 -26.63892 137.76621 35217 ft 513 kts 130°
2026-05-04 16:48 -26.72672 137.89154 35213 ft 514 kts 130°
2026-05-04 16:49 -26.81483 138.01772 35221 ft 515 kts 129°
2026-05-04 16:50 -26.90268 138.14370 35232 ft 515 kts 129°
2026-05-04 16:51 -26.96859 138.23869 35226 ft 514 kts 129°
2026-05-04 16:52 -27.05610 138.36499 35222 ft 515 kts 129°
2026-05-04 16:53 -27.12189 138.46024 35212 ft 515 kts 129°
2026-05-04 16:54 -27.20968 138.58745 35204 ft 516 kts 129°
2026-05-04 16:55 -27.34101 138.77873 35229 ft 516 kts 129°
2026-05-04 16:56 -27.45012 138.93796 35198 ft 516 kts 129°
2026-05-04 16:57 -27.51568 139.03424 35201 ft 517 kts 129°
2026-05-04 16:58 -27.60299 139.16251 35210 ft 518 kts 129°
2026-05-04 17:00 -27.73438 139.35631 35217 ft 519 kts 129°
2026-05-04 17:01 -27.84338 139.51775 35230 ft 518 kts 129°
2026-05-04 17:02 -27.91233 139.62012 35201 ft 512 kts 128°
2026-05-04 17:03 -27.97658 139.71589 35163 ft 511 kts 129°
2026-05-04 17:03 -28.04107 139.81194 35165 ft 515 kts 128°
2026-05-04 17:04 -28.12781 139.94184 35184 ft 518 kts 128°
2026-05-04 17:05 -28.21452 140.07196 35195 ft 520 kts 128°
2026-05-04 17:06 -28.27984 140.17022 35217 ft 520 kts 128°
2026-05-04 17:07 -28.33772 140.25747 35209 ft 520 kts 128°
2026-05-04 17:07 -28.38826 140.33372 35208 ft 520 kts 128°
2026-05-04 17:08 -28.45337 140.43239 35216 ft 520 kts 128°
2026-05-04 17:09 -28.49676 140.49827 35216 ft 520 kts 128°
2026-05-04 17:09 -28.54011 140.56412 35206 ft 521 kts 128°
2026-05-04 17:10 -28.64829 140.72880 35200 ft 521 kts 128°
2026-05-04 17:11 -28.69166 140.79506 35199 ft 522 kts 128°
2026-05-04 17:12 -28.75631 140.89419 35221 ft 522 kts 128°
2026-05-04 17:13 -28.86450 141.06021 35209 ft 522 kts 128°
2026-05-04 17:14 -28.95062 141.19298 35208 ft 522 kts 128°
2026-05-04 17:15 -29.01528 141.29310 35206 ft 522 kts 128°
2026-05-04 17:16 -29.10166 141.42679 35198 ft 523 kts 127°
2026-05-04 17:17 -29.18774 141.56042 35201 ft 523 kts 127°
2026-05-04 17:18 -29.27383 141.69469 35214 ft 523 kts 127°
2026-05-04 17:19 -29.35940 141.82854 35211 ft 522 kts 127°
2026-05-04 17:20 -29.44506 141.96295 35208 ft 522 kts 127°
2026-05-04 17:20 -29.50886 142.06360 35203 ft 522 kts 127°
2026-05-04 17:21 -29.59431 142.19858 35200 ft 523 kts 127°
2026-05-04 17:22 -29.63705 142.26617 35202 ft 523 kts 127°
2026-05-04 17:23 -29.72221 142.40102 35214 ft 523 kts 127°
2026-05-04 17:24 -29.78607 142.50270 35209 ft 522 kts 127°
2026-05-04 17:25 -29.87088 142.63826 35200 ft 523 kts 127°
2026-05-04 17:26 -29.95895 142.77125 35201 ft 522 kts 132°
2026-05-04 17:27 -30.07497 142.93201 35201 ft 523 kts 130°
2026-05-04 17:28 -30.16620 143.06323 35193 ft 524 kts 131°
2026-05-04 17:29 -30.30342 143.25960 35199 ft 525 kts 130°
2026-05-04 17:31 -30.41738 143.42399 35195 ft 525 kts 130°
2026-05-04 17:32 -30.53166 143.58893 35191 ft 525 kts 130°
2026-05-04 17:33 -30.62291 143.72128 35200 ft 525 kts 130°
2026-05-04 17:34 -30.71362 143.85347 35196 ft 525 kts 130°
2026-05-04 17:35 -30.82728 144.01950 35193 ft 525 kts 130°
2026-05-04 17:36 -30.87239 144.08563 35194 ft 525 kts 130°
2026-05-04 17:36 -30.91773 144.15233 35195 ft 525 kts 130°
2026-05-04 17:37 -30.96304 144.21910 35195 ft 525 kts 130°
2026-05-04 17:37 -31.00835 144.28588 35214 ft 525 kts 130°
2026-05-04 17:38 -31.05339 144.35222 35204 ft 525 kts 130°
2026-05-04 17:38 -31.09856 144.41901 35200 ft 525 kts 130°
2026-05-04 17:39 -31.16636 144.51934 35194 ft 525 kts 130°
2026-05-04 17:39 -31.21151 144.58632 35193 ft 525 kts 130°
2026-05-04 17:40 -31.25627 144.65300 35194 ft 525 kts 130°
2026-05-04 17:40 -31.30135 144.72012 35193 ft 525 kts 130°
2026-05-04 17:41 -31.34644 144.78726 35191 ft 525 kts 130°
2026-05-04 17:41 -31.39140 144.85450 35190 ft 525 kts 130°
2026-05-04 17:42 -31.43623 144.92191 35216 ft 525 kts 130°
2026-05-04 17:42 -31.48085 144.98878 35204 ft 524 kts 130°
2026-05-04 17:43 -31.52575 145.05607 35195 ft 524 kts 130°
2026-05-04 17:43 -31.57053 145.12352 35189 ft 524 kts 130°
2026-05-04 17:44 -31.61518 145.19103 35187 ft 524 kts 130°
2026-05-04 17:44 -31.65959 145.25824 35186 ft 524 kts 130°
2026-05-04 17:45 -31.70435 145.32590 35182 ft 525 kts 130°
2026-05-04 17:45 -31.74913 145.39362 35184 ft 525 kts 130°
2026-05-04 17:46 -31.79384 145.46147 35181 ft 525 kts 129°
2026-05-04 17:46 -31.83818 145.52899 35187 ft 525 kts 129°
2026-05-04 17:47 -31.88279 145.59697 35208 ft 525 kts 129°
2026-05-04 17:47 -31.92735 145.66500 35199 ft 524 kts 129°
2026-05-04 17:48 -31.97181 145.73309 35196 ft 524 kts 129°
2026-05-04 17:48 -32.01615 145.80117 35184 ft 524 kts 129°
2026-05-04 17:49 -32.06023 145.86892 35185 ft 524 kts 129°
2026-05-04 17:49 -32.10471 145.93709 35185 ft 524 kts 129°
2026-05-04 17:50 -32.14908 146.00543 35185 ft 525 kts 129°
2026-05-04 17:50 -32.19340 146.07387 35188 ft 525 kts 129°
2026-05-04 17:51 -32.23739 146.14198 35186 ft 525 kts 129°
2026-05-04 17:51 -32.28172 146.21056 35205 ft 525 kts 129°
2026-05-04 17:52 -32.32597 146.27920 35200 ft 525 kts 129°
2026-05-04 17:52 -32.37012 146.34791 35191 ft 525 kts 129°
2026-05-04 17:53 -32.41389 146.41617 35195 ft 525 kts 129°
2026-05-04 17:53 -32.45805 146.48499 35194 ft 525 kts 129°
2026-05-04 17:54 -32.50222 146.55384 35195 ft 525 kts 129°
2026-05-04 17:54 -32.54629 146.62280 35195 ft 525 kts 129°
2026-05-04 17:55 -32.59019 146.69179 35192 ft 525 kts 129°
2026-05-04 17:55 -32.63382 146.76043 35190 ft 524 kts 129°
2026-05-04 17:56 -32.67766 146.82958 35185 ft 524 kts 129°
2026-05-04 17:56 -32.72147 146.89873 35210 ft 524 kts 129°
2026-05-04 17:57 -32.76527 146.96783 35194 ft 523 kts 129°
2026-05-04 17:57 -32.80888 147.03690 35187 ft 523 kts 129°
2026-05-04 17:58 -32.85218 147.10565 35191 ft 523 kts 129°
2026-05-04 17:58 -32.89577 147.17488 35173 ft 523 kts 129°
2026-05-04 17:59 -32.93931 147.24420 35175 ft 523 kts 129°
2026-05-04 18:00 -33.00430 147.34782 35176 ft 523 kts 129°
2026-05-04 18:00 -33.04778 147.41742 35188 ft 524 kts 128°
2026-05-04 18:01 -33.09121 147.48714 35182 ft 524 kts 128°
2026-05-04 18:01 -33.13432 147.55647 35208 ft 524 kts 128°
2026-05-04 18:02 -33.19941 147.66107 35188 ft 523 kts 128°
2026-05-04 18:02 -33.24268 147.73081 35188 ft 523 kts 128°
2026-05-04 18:03 -33.28599 147.80078 35179 ft 523 kts 128°
2026-05-04 18:03 -33.32886 147.87032 35187 ft 523 kts 128°
2026-05-04 18:04 -33.36961 147.94259 35184 ft 525 kts 117°
2026-05-04 18:05 -33.41511 148.06188 35189 ft 526 kts 114°
2026-05-04 18:05 -33.44526 148.14161 35185 ft 525 kts 114°
2026-05-04 18:06 -33.49028 148.26065 35173 ft 526 kts 114°
2026-05-04 18:06 -33.52031 148.34058 35170 ft 526 kts 114°
2026-05-04 18:07 -33.55032 148.42061 35176 ft 527 kts 114°
2026-05-04 18:07 -33.58015 148.50024 35168 ft 527 kts 114°
2026-05-04 18:08 -33.61017 148.58047 35174 ft 527 kts 114°
2026-05-04 18:08 -33.64002 148.66072 35183 ft 527 kts 114°
2026-05-04 18:09 -33.69962 148.82141 35179 ft 527 kts 114°
2026-05-04 18:10 -33.72912 148.90126 35184 ft 526 kts 114°
2026-05-04 18:10 -33.75874 148.98168 35177 ft 526 kts 114°
2026-05-04 18:11 -33.78830 149.06199 35188 ft 526 kts 114°
2026-05-04 18:11 -33.81784 149.14232 35187 ft 525 kts 114°
2026-05-04 18:12 -33.84710 149.22212 35191 ft 524 kts 114°
2026-05-04 18:12 -33.86173 149.26218 34999 ft 524 kts 113°
2026-05-04 18:12 -33.87652 149.30275 34080 ft 532 kts 113°
2026-05-04 18:13 -33.89124 149.34319 33551 ft 526 kts 113°
2026-05-04 18:13 -33.90587 149.38334 33099 ft 520 kts 113°
2026-05-04 18:13 -33.93461 149.46231 32194 ft 509 kts 113°
2026-05-04 18:14 -33.94874 149.50118 31744 ft 505 kts 113°
2026-05-04 18:14 -33.96270 149.53973 31289 ft 500 kts 113°
2026-05-04 18:14 -33.97649 149.57794 30836 ft 495 kts 113°
2026-05-04 18:15 -34.00352 149.65277 29911 ft 485 kts 112°
2026-05-04 18:15 -34.03017 149.72672 28888 ft 478 kts 112°
2026-05-04 18:15 -34.04311 149.76266 28388 ft 474 kts 112°
2026-05-04 18:16 -34.05617 149.79899 27912 ft 470 kts 112°
2026-05-04 18:16 -34.06912 149.83506 27445 ft 467 kts 112°
2026-05-04 18:16 -34.08198 149.87087 26986 ft 464 kts 112°
2026-05-04 18:17 -34.10719 149.94125 26130 ft 457 kts 112°
2026-05-04 18:17 -34.11972 149.97639 25714 ft 454 kts 112°
2026-05-04 18:17 -34.14448 150.04603 24937 ft 448 kts 111°
2026-05-04 18:18 -34.15674 150.08043 24546 ft 446 kts 111°
2026-05-04 18:18 -34.16898 150.11475 24166 ft 444 kts 111°
2026-05-04 18:18 -34.18114 150.14890 23788 ft 441 kts 111°
2026-05-04 18:18 -34.19320 150.18285 22802 ft 452 kts 111°
2026-05-04 18:19 -34.21807 150.25283 21613 ft 452 kts 111°
2026-05-04 18:19 -34.23044 150.28768 21136 ft 450 kts 111°
2026-05-04 18:19 -34.24273 150.32235 20686 ft 446 kts 111°
2026-05-04 18:20 -34.25490 150.35672 20217 ft 443 kts 111°
2026-05-04 18:20 -34.26489 150.39157 19786 ft 435 kts 98°
2026-05-04 18:20 -34.26770 150.42743 19318 ft 424 kts 82°
2026-05-04 18:20 -34.26343 150.46153 18866 ft 410 kts 67°
2026-05-04 18:21 -34.25286 150.49280 18406 ft 396 kts 54°
2026-05-04 18:21 -34.23974 150.52191 17836 ft 393 kts 54°
2026-05-04 18:21 -34.22675 150.55085 17286 ft 390 kts 54°
2026-05-04 18:21 -34.21391 150.57953 16749 ft 387 kts 55°
2026-05-04 18:22 -34.20114 150.60802 16229 ft 384 kts 55°
2026-05-04 18:22 -34.18845 150.63630 15657 ft 381 kts 55°
2026-05-04 18:22 -34.17593 150.66415 15043 ft 372 kts 56°
2026-05-04 18:22 -34.16381 150.69122 14334 ft 362 kts 56°
2026-05-04 18:23 -34.15191 150.71776 13502 ft 358 kts 56°
2026-05-04 18:23 -34.14027 150.74363 12662 ft 353 kts 56°
2026-05-04 18:23 -34.12862 150.76945 11846 ft 348 kts 55°
2026-05-04 18:23 -34.11711 150.79485 11067 ft 342 kts 55°
2026-05-04 18:24 -34.10579 150.81988 10306 ft 337 kts 55°
2026-05-04 18:24 -34.09465 150.84456 9519 ft 333 kts 55°
2026-05-04 18:24 -34.08372 150.86893 8714 ft 329 kts 56°
2026-05-04 18:24 -34.07282 150.89319 8373 ft 324 kts 55°
2026-05-04 18:25 -34.06243 150.91636 8143 ft 305 kts 55°
2026-05-04 18:25 -34.05260 150.93823 7626 ft 297 kts 54°
2026-05-04 18:25 -34.04289 150.95977 7350 ft 290 kts 56°
2026-05-04 18:25 -34.03629 150.98313 6960 ft 303 kts 78°
2026-05-04 18:26 -34.03712 151.00829 6827 ft 301 kts 100°
2026-05-04 18:26 -34.04507 151.03131 6701 ft 297 kts 123°
2026-05-04 18:26 -34.05836 151.05008 6455 ft 294 kts 135°
2026-05-04 18:26 -34.07334 151.06664 6126 ft 291 kts 147°
2026-05-04 18:27 -34.09068 151.07834 5875 ft 283 kts 161°
2026-05-04 18:27 -34.10933 151.08484 5649 ft 276 kts 172°
2026-05-04 18:27 -34.12801 151.08961 5438 ft 271 kts 171°
2026-05-04 18:27 -34.14597 151.09428 5128 ft 264 kts 171°
2026-05-04 18:28 -34.16379 151.09891 4634 ft 260 kts 171°
2026-05-04 18:28 -34.18173 151.10354 4117 ft 266 kts 172°
2026-05-04 18:28 -34.19963 151.10915 3889 ft 264 kts 159°
2026-05-04 18:28 -34.21310 151.12350 3832 ft 262 kts 120°
2026-05-04 18:29 -34.21696 151.14422 3753 ft 249 kts 80°
2026-05-04 18:29 -34.21160 151.16310 3674 ft 233 kts 58°
2026-05-04 18:29 -34.20346 151.17942 3598 ft 228 kts 53°
2026-05-04 18:29 -34.19454 151.19529 3510 ft 229 kts 50°
2026-05-04 18:30 -34.16942 151.21582 3307 ft 216 kts 15°
2026-05-04 18:30 -34.15527 151.22205 3209 ft 217 kts 13°
2026-05-04 18:30 -34.14105 151.22790 3121 ft 216 kts 12°
2026-05-04 18:31 -34.12675 151.22944 3014 ft 202 kts 338°
2026-05-04 18:31 -34.11472 151.22092 2954 ft 203 kts 323°
2026-05-04 18:31 -34.10152 151.21545 2766 ft 203 kts 350°
2026-05-04 18:31 -34.08789 151.21286 2515 ft 199 kts 343°
2026-05-04 18:32 -34.07475 151.20945 2264 ft 187 kts 342°
2026-05-04 18:32 -34.06251 151.20625 2008 ft 172 kts 341°
2026-05-04 18:32 -34.05131 151.20334 1807 ft 156 kts 341°
2026-05-04 18:32 -34.04112 151.20068 1591 ft 146 kts 341°
2026-05-04 18:33 -34.03125 151.19809 1393 ft 145 kts 340°
2026-05-04 18:33 -34.02151 151.19553 1189 ft 142 kts 342°
2026-05-04 18:33 -34.01191 151.19293 897 ft 143 kts 342°
2026-05-04 18:33 -34.00232 151.19037 691 ft 140 kts 343°
2026-05-04 18:34 -33.99280 151.18818 586 ft 137 kts 344°
2026-05-04 18:34 -33.98345 151.18568 414 ft 139 kts 341°
2026-05-04 18:34 -33.97412 151.18317 264 ft 138 kts 341°
2026-05-04 18:34 -33.96480 151.18076 94 ft 137 kts 342°
2026-05-04 18:35 -33.95614 151.17845 23 ft 109 kts 348°
2026-05-04 18:35 -33.95038 151.17699 19 ft 60 kts 348°
2026-05-04 18:35 -33.94742 151.17622 23 ft 39 kts 348°
2026-05-04 18:35 -33.94527 151.17534 26 ft 32 kts 332°
2026-05-04 18:36 -33.94386 151.17417 26 ft 23 kts 320°
2026-05-04 18:36 -33.94294 151.17319 26 ft 2 kts 323°
2026-05-04 18:36 -33.94266 151.17300 25 ft 7 kts 334°
2026-05-04 18:36 -33.94207 151.17265 22 ft 12 kts 333°
2026-05-04 18:37 -33.94146 151.17241 22 ft 10 kts 354°
2026-05-04 18:37 -33.94068 151.17235 22 ft 13 kts 356°
2026-05-04 18:37 -33.94030 151.17232 21 ft 0 kts 354°
2026-05-04 18:37 -33.94003 151.17226 20 ft 8 kts 344°
2026-05-04 18:38 -33.93986 151.17163 20 ft 11 kts 256°
2026-05-04 18:38 -33.94010 151.17056 21 ft 13 kts 254°
2026-05-04 18:38 -33.94028 151.16981 23 ft 2 kts 253°
2026-05-04 18:38 -33.94043 151.16920 23 ft 13 kts 253°
2026-05-04 18:39 -33.94078 151.16778 21 ft 21 kts 253°
2026-05-04 18:39 -33.94091 151.16670 21 ft 14 kts 279°
2026-05-04 18:39 -33.94035 151.16621 21 ft 10 kts 343°
2026-05-04 18:39 -33.94009 151.16612 21 ft 0 kts 343°